{"data":{"norad_id":52313,"intl_designator":"2022-041BE","name":"STARLINK-3749","alt_names":[],"object_type":"PAYLOAD","status":"ACTIVE","operator":null,"country":"US","launch_date":"2022-04-21","launch_site_code":"AFETR","launch_vehicle":null,"mission":null,"orbit_class":"UNKNOWN","rcs_meters":null,"size_class":null,"mass_kg":null,"dimensions":null,"purposes":["comms"],"wikipedia_slug":null,"has_3d_model":false,"image_url":null,"decayed_at":null,"tle_current":{"epoch":"2026-05-25T02:23:25.803744Z","epoch_age_seconds":59816,"freshness":"FRESH","line1":"1 52313U 22041BE  26145.09960421 -.00001273  00000+0 -61881-4 0  9994","line2":"2 52313  53.2137 106.1026 0001756  78.4193 281.6996 15.08847261227402","mean_motion":15.08847261,"eccentricity":0.0001756,"inclination_deg":53.2137,"raan_deg":106.1026,"arg_perigee_deg":78.4193,"mean_anomaly_deg":281.6996,"bstar":-6.1881e-5,"rev_number":22740,"period_min":95.437095405245,"perigee_km":538.50641918186,"apogee_km":540.93597097997,"semimajor_km":6917.8581950809,"source":"CELESTRAK","updated_at":"2026-05-25T13:38:17.111792Z"}}}